Regional Weather Roundup
Issued by NWS

Home | Current Version | Previous Version | Graphics & Text | Print | Product List | Glossary On
Versions: 1 2 3 4 5 6 7 8 9 10 11 12 13 14 15 16 17 18 19 20 21 22 23 24 25 26 27 28 29 30 31 32 33 34 35 36 37 38 39 40 41 42 43 44 45 46 47 48 49 50
000
ASUS43 KDTX 302201
RWRMI
MICHIGAN HOURLY REGIONAL WEATHER ROUNDUP
NATIONAL WEATHER SERVICE DETROIT/PONTIAC MI
600 PM EDT SAT MAY 30 2015

NOTE: "FAIR" INDICATES FEW OR NO CLOUDS BELOW 12,000 FEET WITH NO
SIGNIFICANT WEATHER AND/OR OBSTRUCTION TO VISIBILITY.

MIZ047>049-052>055-059>063-066>070-074>076-081>083-302300-
SOUTHEAST LOWER MICHIGAN

CITY           SKY/WX    TMP DP  RH WIND       PRES   REMARKS
ADRIAN         CLOUDY    72  67  84 N8        29.95S
ALMA           DRIZZLE   54  52  94 N13G23    30.09R
ANN ARBOR      LGT RAIN  70  67  90 VRB3      29.96S
BAD AXE        RAIN      50  49  94 N17G24    30.09R
CARO           RAIN      52  51  95 NE12G17   30.08R
DETROIT CITY   RAIN      60  58  92 N9G18     30.00R VSB 1
DETROIT        TSTM      70  66  87 N5        29.97R FOG
FLINT          CLOUDY    60  55  83 NE17      30.04R
GROSSE ILE     PTSUNNY   72  66  83 N6        29.96R
HILLSDALE      HVY RAIN  68  68 100 CALM      29.98R VSB 1
HOWELL         LGT RAIN  62  58  89 N9G22     30.01R

CITY           SKY/WX    TMP DP  RH WIND       PRES   REMARKS
JACKSON        LGT RAIN  69  64  84 N16G22    29.97S
LAMBERTVILLE   PTSUNNY   77  68  73 CALM      29.95R
LANSING        LGT RAIN  59  56  89 N16G24    30.04R FOG
LAPEER         LGT RAIN  55  53  93 NE12      30.06R
MONROE         PTSUNNY   73  70  88 NE3       29.94R
MT. CLEMENS    HVY RAIN  57  55  94 NE13      30.00R
PONTIAC        TSTM      62  60  93 NE15      30.00R FOG
PORT HOPE        N/A     51  50  96 VRB7      30.08R
PORT HURON     CLOUDY    52  50  93 N16       30.04R
TRI CITIES     LGT RAIN  55  50  83 N21G28    30.08S
MIDLAND        DRIZZLE   53  50  90 N12G17    30.09R
TROY           HVY RAIN  62  61  97 NE10      30.03R VSB 1/2
SAGINAW HB     LGT RAIN  55  55 100 N16       30.07R
$$
MIZ043>046-050>051-056>058-064>065-071>073-077>080-302300-
SOUTHWEST LOWER MICHIGAN

CITY           SKY/WX    TMP DP  RH WIND       PRES   REMARKS
BATTLE CREEK   CLOUDY    69  63  81 N12       29.99R
BENTON HARBOR  LGT RAIN  53  52  96 VRB6      30.00R FOG
BIG RAPIDS     RAIN      51  48  90 N7        30.09F
COLDWATER      CLOUDY    70  64  80 N9G21     29.96S
FREMONT        RAIN      50  49  93 N10       30.09S
HOLLAND        LGT RAIN  55  52  89 N13G23    30.05R
GRAND RAPIDS   LGT RAIN  55  53  93 N16       30.05R FOG
IONIA          LGT RAIN  57  56  96 N15       30.05R
KALAMAZOO      CLOUDY    68  62  81 N14       29.99R
LUDINGTON      DRIZZLE   51  48  89 N10       30.15R
MARSHALL       CLOUDY    69  63  81 N5        29.98R
MOUNT PLEASANT LGT RAIN  51  48  87 N12G20    30.09S
MUSKEGON       LGT RAIN  52  48  86 NE15      30.09R
SOUTH HAVEN    LGT RAIN  58  57  96 NE14      30.00R
$$
MIZ016>042-302300-
NORTHERN LOWER MICHIGAN

CITY           SKY/WX    TMP DP  RH WIND       PRES   REMARKS
ALPENA         CLOUDY    54  40  59 N14G24    30.12R
BEAVER ISLAND  CLOUDY    47  38  71 N10G17    30.20S
BELLAIRE       CLOUDY    51  39  64 N6        30.18R
CADILLAC       LGT RAIN  47  44  88 N12G17    30.13R
CHARLEVOIX     CLOUDY    48  41  79 N12       30.22R
FRANKFORT      CLOUDY    49  38  66 N10G16    30.18S
GAYLORD        CLOUDY    51  42  71 N7        30.14R
GRAYLING       DRIZZLE   51  47  86 NW7       30.14R
HARBOR SPRINGS CLOUDY    51  38  61 CALM      30.17R
HOUGHTON LAKE  LGT RAIN  52  48  86 N10       30.12R
MANISTEE       CLOUDY    48  43  81 N8        30.17R
OSCODA         LGT RAIN  54  51  92 N10G16    30.09R
PELLSTON       CLOUDY    53  39  59 NW14      30.16S
ROGERS CITY    CLOUDY    51  40  66 NW10G22   30.15R
TRAVERSE CITY  CLOUDY    50  40  68 N13       30.16S
$$
MIZ007>008-015-302300-
EASTERN UPPER MICHIGAN

CITY           SKY/WX    TMP DP  RH WIND       PRES   REMARKS
KINROSS        PTSUNNY   46  37  71 NW23      30.17R
MACKINAC ISLAN CLOUDY    53  39  59 N15       30.15S
NEWBERRY       CLOUDY    43  34  71 NW9G18    30.22R
S. S. MARIE    PTSUNNY   45  36  70 NW14G24   30.17R
$$
MIZ004>006-011>014-085-302300-
CENTRAL UPPER MICHIGAN

CITY           SKY/WX    TMP DP  RH WIND       PRES   REMARKS
MANISTIQUE     CLOUDY    44  33  64 N18G28    30.23S
ESCANABA       CLOUDY    48  27  43 N12G24    30.24S
MENOMINEE      CLOUDY    52  39  62 E14       30.22R
SAWYER-GWINN   SUNNY     45  28  53 NE22G29   30.27R
$$
MIZ001>003-009>011-084-302300-
WESTERN UPPER MICHIGAN

CITY           SKY/WX    TMP DP  RH WIND       PRES   REMARKS
IRON MOUNTAIN  PTSUNNY   56  29  35 N15       30.23R
HOUGHTON       SUNNY     48  27  44 N16       30.31R
COPPER HARBOR    N/A     44  33  65 N10       30.32R
IRONWOOD       SUNNY     48  28  46 N12G18    30.28S
$$

ABBREVIATIONS USED IN REMARKS
   TC - TEMPERATURE IN CELSIUS
  WCI - WIND CHILL INDEX
   HX - HEAT INDEX
  VSB - VISIBILITY



USA.gov is the U.S. government's official web portal to all federal, state and local government web resources and services.